AFL585 VTSP-UUEE

Flight info

Callsign AFL585
Flight time N/A
Altitude 32000
Route UPSAB1A UPSAB L515 OBMOG M770 SADUS/N0496F340 M770 KAKID M875 BUTOP A589 ASARI L509 INDEK/N0481F360 L509 TAPIS M875 AMDAR/K0883F360 M875 MILSO M161 EDAKO/K0882F380 M161 LEDGI M166 ARISA L736 OLOPI OLOPI3E
Aircraft B77W/H-SDE1E2E3FGHIJ2J3J4J5M1RWXY/LB1D1

Departure

Time N/A
Airport Phuket International Airport (VTSP)

Arrival

Time 2026-05-04 02:13
Airport Sheremetyevo International Airport (UUEE)
Time Latitude Longitude Altitude Speed Heading
2026-05-04 00:11 49.50632 54.56280 35971 ft 444 kts 306°
2026-05-04 00:12 49.54721 54.49157 35970 ft 443 kts 306°
2026-05-04 00:12 49.58783 54.42062 35973 ft 443 kts 306°
2026-05-04 00:13 49.62851 54.34937 35973 ft 443 kts 306°
2026-05-04 00:13 49.66877 54.27866 35979 ft 442 kts 305°
2026-05-04 00:14 49.70938 54.20714 35984 ft 443 kts 305°
2026-05-04 00:14 49.74973 54.13587 35984 ft 443 kts 305°
2026-05-04 00:15 49.79012 54.06434 35989 ft 443 kts 305°
2026-05-04 00:15 49.83040 53.99282 35988 ft 443 kts 305°
2026-05-04 00:16 49.87072 53.92104 35988 ft 442 kts 305°
2026-05-04 00:16 49.91105 53.84901 35988 ft 443 kts 305°
2026-05-04 00:17 49.95111 53.77728 35986 ft 444 kts 305°
2026-05-04 00:17 49.99131 53.70510 35993 ft 444 kts 305°
2026-05-04 00:18 50.03144 53.63285 35986 ft 442 kts 305°
2026-05-04 00:18 50.07159 53.56036 35984 ft 442 kts 305°
2026-05-04 00:19 50.11145 53.48818 35979 ft 442 kts 305°
2026-05-04 00:19 50.15174 53.41502 35979 ft 442 kts 305°
2026-05-04 00:20 50.19165 53.34235 35976 ft 443 kts 304°
2026-05-04 00:20 50.23124 53.27009 35984 ft 441 kts 304°
2026-05-04 00:21 50.27102 53.19725 35979 ft 440 kts 304°
2026-05-04 00:21 50.31065 53.12447 35985 ft 441 kts 303°
2026-05-04 00:22 50.35015 53.05173 35986 ft 442 kts 304°
2026-05-04 00:22 50.38985 52.97842 35981 ft 440 kts 303°
2026-05-04 00:23 50.42932 52.90534 35983 ft 440 kts 303°
2026-05-04 00:23 50.46866 52.83228 35980 ft 441 kts 303°
2026-05-04 00:24 50.50796 52.75909 35986 ft 440 kts 303°
2026-05-04 00:24 50.54731 52.68560 35983 ft 441 kts 303°
2026-05-04 00:25 50.58672 52.61179 35977 ft 441 kts 303°
2026-05-04 00:25 50.62609 52.53783 35983 ft 442 kts 303°
2026-05-04 00:26 50.66537 52.46384 35993 ft 442 kts 303°
2026-05-04 00:26 50.70468 52.38972 35983 ft 443 kts 303°
2026-05-04 00:27 50.74396 52.31605 35986 ft 441 kts 303°
2026-05-04 00:27 50.78321 52.24217 35989 ft 443 kts 303°
2026-05-04 00:28 50.82247 52.16808 36003 ft 443 kts 302°
2026-05-04 00:28 50.86198 52.09328 35998 ft 440 kts 302°
2026-05-04 00:29 50.90105 52.01907 36009 ft 442 kts 302°
2026-05-04 00:29 50.94037 51.94415 36002 ft 443 kts 302°
2026-05-04 00:30 50.97937 51.86971 35997 ft 441 kts 302°
2026-05-04 00:30 51.01852 51.79466 36023 ft 443 kts 302°
2026-05-04 00:31 51.05763 51.71955 36004 ft 442 kts 302°
2026-05-04 00:31 51.09681 51.64405 36022 ft 442 kts 302°
2026-05-04 00:32 51.13579 51.56868 36006 ft 443 kts 302°
2026-05-04 00:32 51.16810 51.48782 36006 ft 435 kts 293°
2026-05-04 00:33 51.21197 51.36200 36002 ft 434 kts 293°
2026-05-04 00:34 51.24106 51.27813 36018 ft 433 kts 292°
2026-05-04 00:34 51.27016 51.19390 36009 ft 435 kts 292°
2026-05-04 00:35 51.29930 51.10929 36024 ft 434 kts 292°
2026-05-04 00:35 51.32832 51.02473 36016 ft 438 kts 292°
2026-05-04 00:35 51.34296 50.98187 36160 ft 444 kts 293°
2026-05-04 00:36 51.35769 50.93882 36710 ft 440 kts 293°
2026-05-04 00:36 51.37221 50.89631 37278 ft 436 kts 293°
2026-05-04 00:36 51.38660 50.85404 37600 ft 437 kts 294°
2026-05-04 00:36 51.40118 50.81114 37825 ft 440 kts 294°
2026-05-04 00:37 51.41584 50.76794 37987 ft 442 kts 294°
2026-05-04 00:37 51.44500 50.68183 38014 ft 441 kts 294°
2026-05-04 00:38 51.47422 50.59520 38022 ft 443 kts 294°
2026-05-04 00:38 51.50246 50.50845 38022 ft 440 kts 291°
2026-05-04 00:39 51.52789 50.41904 38020 ft 441 kts 291°
2026-05-04 00:39 51.55332 50.32970 38021 ft 443 kts 291°
2026-05-04 00:40 51.57889 50.24004 38032 ft 442 kts 291°
2026-05-04 00:40 51.60454 50.14994 38015 ft 443 kts 291°
2026-05-04 00:41 51.63015 50.05976 38027 ft 445 kts 291°
2026-05-04 00:41 51.65562 49.96984 38040 ft 443 kts 291°
2026-05-04 00:42 51.68101 49.87982 38032 ft 445 kts 291°
2026-05-04 00:42 51.70648 49.78922 38023 ft 443 kts 291°
2026-05-04 00:43 51.73176 49.69895 38034 ft 444 kts 291°
2026-05-04 00:43 51.75707 49.60821 38035 ft 445 kts 291°
2026-05-04 00:44 51.78242 49.51700 38025 ft 446 kts 291°
2026-05-04 00:44 51.80753 49.42627 38023 ft 445 kts 291°
2026-05-04 00:45 51.83276 49.33477 38036 ft 446 kts 291°
2026-05-04 00:45 51.85795 49.24305 38052 ft 447 kts 291°
2026-05-04 00:46 51.88295 49.15169 38052 ft 446 kts 291°
2026-05-04 00:46 51.90808 49.05944 38046 ft 448 kts 291°
2026-05-04 00:47 51.93297 48.96774 38045 ft 449 kts 291°
2026-05-04 00:47 51.95805 48.87498 38048 ft 449 kts 291°
2026-05-04 00:48 51.98285 48.78280 38050 ft 449 kts 291°
2026-05-04 00:48 52.00767 48.69002 38053 ft 450 kts 291°
2026-05-04 00:49 52.03249 48.59686 38045 ft 450 kts 291°
2026-05-04 00:49 52.05721 48.50370 38042 ft 449 kts 291°
2026-05-04 00:50 52.08172 48.41096 38042 ft 449 kts 291°
2026-05-04 00:50 52.10622 48.31786 38040 ft 451 kts 291°
2026-05-04 00:51 52.13089 48.22374 38040 ft 451 kts 291°
2026-05-04 00:51 52.15595 48.13037 38049 ft 451 kts 292°
2026-05-04 00:52 52.18124 48.03857 38042 ft 453 kts 292°
2026-05-04 00:52 52.20672 47.94551 38047 ft 454 kts 292°
2026-05-04 00:53 52.23230 47.85164 38048 ft 453 kts 292°
2026-05-04 00:53 52.25779 47.75760 38033 ft 454 kts 292°
2026-05-04 00:54 52.28305 47.66403 38037 ft 454 kts 292°
2026-05-04 00:54 52.30840 47.56974 38032 ft 456 kts 292°
2026-05-04 00:55 52.33386 47.47463 38040 ft 455 kts 292°
2026-05-04 00:55 52.35899 47.38050 38032 ft 456 kts 292°
2026-05-04 00:56 52.38425 47.28545 38057 ft 456 kts 292°
2026-05-04 00:56 52.40935 47.19064 38038 ft 457 kts 292°
2026-05-04 00:57 52.43451 47.09522 38035 ft 457 kts 292°
2026-05-04 00:57 52.45948 47.00009 38033 ft 458 kts 292°
2026-05-04 00:58 52.48443 46.90463 38034 ft 458 kts 292°
2026-05-04 00:58 52.50946 46.80845 38033 ft 458 kts 292°
2026-05-04 00:59 52.53410 46.71311 38037 ft 457 kts 292°
2026-05-04 00:59 52.55883 46.61694 38036 ft 457 kts 292°
2026-05-04 01:00 52.58345 46.52087 38034 ft 457 kts 292°
2026-05-04 01:00 52.60802 46.42456 38036 ft 458 kts 292°
2026-05-04 01:01 52.63219 46.32849 38035 ft 456 kts 290°
2026-05-04 01:01 52.65414 46.23033 38039 ft 459 kts 289°
2026-05-04 01:02 52.67602 46.13186 38039 ft 458 kts 289°
2026-05-04 01:02 52.69781 46.03372 38039 ft 459 kts 290°
2026-05-04 01:03 52.71953 45.93562 38039 ft 459 kts 290°
2026-05-04 01:03 52.74124 45.83723 38043 ft 460 kts 290°
2026-05-04 01:04 52.76295 45.73840 38038 ft 459 kts 290°
2026-05-04 01:04 52.78468 45.63907 38057 ft 460 kts 290°
2026-05-04 01:05 52.80628 45.53985 38043 ft 459 kts 290°
2026-05-04 01:05 52.82756 45.44157 38037 ft 459 kts 290°
2026-05-04 01:06 52.84890 45.34234 38035 ft 459 kts 289°
2026-05-04 01:06 52.87024 45.24269 38045 ft 460 kts 289°
2026-05-04 01:07 52.89145 45.14312 38039 ft 461 kts 289°
2026-05-04 01:07 52.91261 45.04329 38036 ft 461 kts 289°
2026-05-04 01:08 52.93381 44.94387 38040 ft 461 kts 290°
2026-05-04 01:08 52.95614 44.84486 38040 ft 459 kts 291°
2026-05-04 01:09 52.97846 44.74537 38035 ft 460 kts 291°
2026-05-04 01:09 53.00061 44.64603 38037 ft 461 kts 291°
2026-05-04 01:10 53.02270 44.54635 38027 ft 461 kts 291°
2026-05-04 01:10 53.04470 44.44652 38030 ft 462 kts 291°
2026-05-04 01:11 53.06660 44.34663 38040 ft 462 kts 290°
2026-05-04 01:11 53.08837 44.24667 38034 ft 461 kts 290°
2026-05-04 01:12 53.10997 44.14704 38029 ft 459 kts 290°
2026-05-04 01:12 53.13154 44.04707 37997 ft 460 kts 290°
2026-05-04 01:13 53.15296 43.94730 38031 ft 461 kts 290°
2026-05-04 01:13 53.17438 43.84704 38039 ft 460 kts 291°
2026-05-04 01:14 53.19572 43.74663 38039 ft 459 kts 291°
2026-05-04 01:14 53.21682 43.64692 38036 ft 459 kts 291°
2026-05-04 01:15 53.23803 43.54613 38044 ft 459 kts 291°
2026-05-04 01:15 53.25897 43.44617 38040 ft 461 kts 291°
2026-05-04 01:16 53.28000 43.34524 38033 ft 460 kts 290°
2026-05-04 01:16 53.30076 43.24514 38034 ft 460 kts 290°
2026-05-04 01:17 53.32160 43.14410 38041 ft 458 kts 290°
2026-05-04 01:17 53.34210 43.04423 38041 ft 459 kts 290°
2026-05-04 01:18 53.36269 42.94346 38031 ft 459 kts 290°
2026-05-04 01:18 53.38311 42.84296 38036 ft 458 kts 290°
2026-05-04 01:19 53.40346 42.74225 38042 ft 458 kts 290°
2026-05-04 01:19 53.42378 42.64124 38029 ft 458 kts 290°
2026-05-04 01:20 53.44403 42.54003 38025 ft 458 kts 290°
2026-05-04 01:20 53.46360 42.43938 38045 ft 458 kts 288°
2026-05-04 01:21 53.48148 42.33724 38031 ft 458 kts 287°
2026-05-04 01:21 53.49935 42.23478 38032 ft 457 kts 288°
2026-05-04 01:22 53.51712 42.13269 38027 ft 456 kts 288°
2026-05-04 01:22 53.53476 42.03097 38017 ft 456 kts 288°
2026-05-04 01:23 53.55230 41.92931 38024 ft 456 kts 288°
2026-05-04 01:23 53.56986 41.82701 38019 ft 457 kts 288°
2026-05-04 01:24 53.58733 41.72468 38021 ft 456 kts 288°
2026-05-04 01:24 53.60475 41.62204 38016 ft 456 kts 288°
2026-05-04 01:25 53.62198 41.51991 38024 ft 456 kts 288°
2026-05-04 01:25 53.63911 41.41780 38019 ft 456 kts 288°
2026-05-04 01:26 53.65618 41.31548 38034 ft 455 kts 287°
2026-05-04 01:26 53.67320 41.21284 38017 ft 456 kts 287°
2026-05-04 01:27 53.69019 41.10976 38032 ft 457 kts 287°
2026-05-04 01:27 53.70833 41.00749 38012 ft 455 kts 294°
2026-05-04 01:28 53.73331 40.91045 38012 ft 454 kts 295°
2026-05-04 01:28 53.75852 40.81337 38004 ft 454 kts 295°
2026-05-04 01:29 53.78379 40.71541 38007 ft 453 kts 295°
2026-05-04 01:29 53.80893 40.61737 37995 ft 454 kts 295°
2026-05-04 01:30 53.83381 40.51988 38005 ft 453 kts 295°
2026-05-04 01:30 53.85860 40.42223 37990 ft 453 kts 295°
2026-05-04 01:31 53.88324 40.32486 37999 ft 454 kts 294°
2026-05-04 01:31 53.90808 40.22664 37994 ft 454 kts 294°
2026-05-04 01:32 53.93281 40.12840 37987 ft 453 kts 294°
2026-05-04 01:32 53.95726 40.03088 37992 ft 453 kts 294°
2026-05-04 01:33 53.98191 39.93209 37996 ft 454 kts 294°
2026-05-04 01:33 54.00619 39.83434 37989 ft 453 kts 294°
2026-05-04 01:34 54.03048 39.73609 37949 ft 448 kts 294°
2026-05-04 01:34 54.04238 39.68778 37383 ft 447 kts 294°
2026-05-04 01:34 54.05446 39.63868 36592 ft 451 kts 295°
2026-05-04 01:34 54.06645 39.58982 35932 ft 454 kts 295°
2026-05-04 01:35 54.07853 39.54049 35188 ft 459 kts 295°
2026-05-04 01:35 54.09087 39.49000 34315 ft 465 kts 295°
2026-05-04 01:35 54.10330 39.43899 33390 ft 469 kts 296°
2026-05-04 01:35 54.11562 39.38832 32517 ft 473 kts 296°
2026-05-04 01:36 54.12824 39.33628 31604 ft 476 kts 295°
2026-05-04 01:36 54.14082 39.28430 30723 ft 478 kts 295°
2026-05-04 01:36 54.15344 39.23201 30130 ft 472 kts 295°
2026-05-04 01:36 54.16562 39.18135 29642 ft 466 kts 295°
2026-05-04 01:37 54.17788 39.13032 29094 ft 460 kts 295°
2026-05-04 01:37 54.18990 39.08015 28537 ft 455 kts 295°
2026-05-04 01:37 54.20163 39.03103 28282 ft 443 kts 295°
2026-05-04 01:37 54.21339 38.98358 28216 ft 425 kts 300°
2026-05-04 01:38 54.22809 38.94162 28079 ft 408 kts 309°
2026-05-04 01:38 54.24626 38.90587 27915 ft 393 kts 319°
2026-05-04 01:38 54.26696 38.87713 27729 ft 381 kts 328°
2026-05-04 01:38 54.28966 38.85446 27547 ft 379 kts 334°
2026-05-04 01:39 54.31316 38.83307 27356 ft 380 kts 334°
2026-05-04 01:39 54.33620 38.81248 27170 ft 378 kts 334°
2026-05-04 01:39 54.35958 38.79186 26981 ft 377 kts 335°
2026-05-04 01:39 54.38269 38.77168 26798 ft 375 kts 335°
2026-05-04 01:40 54.40604 38.75139 26612 ft 375 kts 335°
2026-05-04 01:40 54.42935 38.73121 26426 ft 374 kts 335°
2026-05-04 01:40 54.45229 38.71138 26246 ft 373 kts 335°
2026-05-04 01:40 54.47549 38.69135 26061 ft 371 kts 335°
2026-05-04 01:41 54.49836 38.67159 25962 ft 369 kts 335°
2026-05-04 01:41 54.52114 38.65190 25959 ft 370 kts 335°
2026-05-04 01:41 54.54417 38.63198 25958 ft 371 kts 335°
2026-05-04 01:41 54.56715 38.61208 25951 ft 370 kts 335°
2026-05-04 01:42 54.59015 38.59215 25946 ft 370 kts 335°
2026-05-04 01:42 54.61321 38.57216 25948 ft 371 kts 335°
2026-05-04 01:42 54.63614 38.55224 25943 ft 370 kts 335°
2026-05-04 01:42 54.65878 38.53256 25944 ft 370 kts 335°
2026-05-04 01:43 54.68182 38.51251 25945 ft 370 kts 335°
2026-05-04 01:43 54.70464 38.49262 25944 ft 369 kts 335°
2026-05-04 01:43 54.72762 38.47257 25940 ft 370 kts 335°
2026-05-04 01:43 54.75063 38.45255 25852 ft 371 kts 335°
2026-05-04 01:44 54.77363 38.43263 25618 ft 369 kts 335°
2026-05-04 01:44 54.79642 38.41287 25420 ft 366 kts 335°
2026-05-04 01:44 54.81903 38.39323 25249 ft 366 kts 335°
2026-05-04 01:44 54.84149 38.37226 25076 ft 366 kts 329°
2026-05-04 01:45 54.86166 38.34534 24902 ft 367 kts 318°
2026-05-04 01:45 54.87976 38.31416 24730 ft 367 kts 316°
2026-05-04 01:45 54.91514 38.25137 24382 ft 365 kts 316°
2026-05-04 01:46 54.93283 38.21988 24208 ft 364 kts 316°
2026-05-04 01:46 54.95042 38.18852 24040 ft 363 kts 316°
2026-05-04 01:46 54.96804 38.15705 23864 ft 362 kts 316°
2026-05-04 01:46 54.98552 38.12571 23509 ft 363 kts 316°
2026-05-04 01:47 55.00293 38.09438 23087 ft 360 kts 316°
2026-05-04 01:47 55.02015 38.06337 22701 ft 355 kts 316°
2026-05-04 01:47 55.03698 38.03304 22341 ft 353 kts 316°
2026-05-04 01:47 55.05401 38.00230 21978 ft 352 kts 316°
2026-05-04 01:48 55.07095 37.97169 21610 ft 351 kts 316°
2026-05-04 01:48 55.08781 37.94119 21245 ft 349 kts 316°
2026-05-04 01:48 55.10471 37.91057 20886 ft 347 kts 315°
2026-05-04 01:48 55.12138 37.88035 20449 ft 347 kts 315°
2026-05-04 01:49 55.13804 37.85010 19932 ft 347 kts 315°
2026-05-04 01:49 55.15458 37.82005 19442 ft 346 kts 315°
2026-05-04 01:49 55.17210 37.79154 18957 ft 343 kts 323°
2026-05-04 01:49 55.19094 37.76709 18682 ft 334 kts 324°
2026-05-04 01:50 55.20948 37.74355 18470 ft 326 kts 325°
2026-05-04 01:50 55.22767 37.72043 18230 ft 318 kts 325°
2026-05-04 01:50 55.24518 37.69814 17982 ft 311 kts 324°
2026-05-04 01:50 55.26246 37.67609 17728 ft 305 kts 324°
2026-05-04 01:51 55.27951 37.65431 17477 ft 302 kts 324°
2026-05-04 01:51 55.29652 37.63254 17234 ft 301 kts 324°
2026-05-04 01:51 55.31328 37.61105 17004 ft 300 kts 324°
2026-05-04 01:51 55.33013 37.58942 16756 ft 299 kts 324°
2026-05-04 01:52 55.34682 37.56798 16517 ft 298 kts 324°
2026-05-04 01:52 55.36340 37.54665 16283 ft 297 kts 324°
2026-05-04 01:52 55.38004 37.52523 16038 ft 295 kts 324°
2026-05-04 01:52 55.39660 37.50389 15793 ft 294 kts 324°
2026-05-04 01:53 55.41291 37.48285 15560 ft 292 kts 324°
2026-05-04 01:53 55.42922 37.46179 15326 ft 291 kts 324°
2026-05-04 01:53 55.44563 37.44058 15094 ft 291 kts 324°
2026-05-04 01:53 55.46171 37.41976 14855 ft 289 kts 324°
2026-05-04 01:54 55.47789 37.39880 14624 ft 288 kts 324°
2026-05-04 01:54 55.49396 37.37798 14401 ft 287 kts 325°
2026-05-04 01:54 55.51183 37.36239 14144 ft 287 kts 345°
2026-05-04 01:54 55.53161 37.35812 13920 ft 288 kts 355°
2026-05-04 01:55 55.55172 37.35726 13686 ft 288 kts 357°
2026-05-04 01:55 55.57172 37.35699 13515 ft 287 kts 357°
2026-05-04 01:55 55.59150 37.35679 13321 ft 287 kts 357°
2026-05-04 01:55 55.61142 37.35660 13097 ft 287 kts 357°
2026-05-04 01:56 55.63136 37.35640 12862 ft 285 kts 357°
2026-05-04 01:56 55.65104 37.35620 12632 ft 285 kts 357°
2026-05-04 01:56 55.67093 37.35600 12399 ft 284 kts 357°
2026-05-04 01:56 55.69053 37.35580 12171 ft 283 kts 357°
2026-05-04 01:57 55.71021 37.35560 11939 ft 282 kts 357°
2026-05-04 01:57 55.72982 37.35540 11707 ft 282 kts 357°
2026-05-04 01:57 55.74916 37.35376 11481 ft 280 kts 353°
2026-05-04 01:57 55.76852 37.35130 11257 ft 279 kts 354°
2026-05-04 01:58 55.78781 37.34904 11036 ft 278 kts 353°
2026-05-04 01:58 55.80725 37.34690 10812 ft 278 kts 353°
2026-05-04 01:58 55.82639 37.34483 10586 ft 278 kts 353°
2026-05-04 01:58 55.84562 37.34275 10360 ft 275 kts 353°
2026-05-04 01:59 55.86452 37.34067 10140 ft 269 kts 353°
2026-05-04 01:59 55.88311 37.33861 9917 ft 265 kts 353°
2026-05-04 01:59 55.90150 37.33658 9679 ft 264 kts 353°
2026-05-04 01:59 55.91963 37.33457 9447 ft 263 kts 353°
2026-05-04 02:00 55.93784 37.33256 9215 ft 261 kts 353°
2026-05-04 02:00 55.95583 37.33057 8990 ft 262 kts 353°
2026-05-04 02:00 55.97405 37.32857 8756 ft 261 kts 354°
2026-05-04 02:00 55.99219 37.32857 8535 ft 261 kts 358°
2026-05-04 02:01 56.01030 37.32959 8327 ft 260 kts 359°
2026-05-04 02:01 56.02829 37.33062 8114 ft 261 kts 359°
2026-05-04 02:01 56.04635 37.33162 7897 ft 259 kts 359°
2026-05-04 02:01 56.06429 37.33260 7691 ft 259 kts 359°
2026-05-04 02:02 56.08204 37.33357 7482 ft 254 kts 359°
2026-05-04 02:02 56.09940 37.33451 7278 ft 248 kts 359°
2026-05-04 02:02 56.11662 37.33544 7083 ft 243 kts 358°
2026-05-04 02:02 56.13313 37.33635 6891 ft 238 kts 360°
2026-05-04 02:03 56.14912 37.34367 6682 ft 241 kts 27°
2026-05-04 02:03 56.16119 37.36447 6478 ft 249 kts 57°
2026-05-04 02:03 56.16811 37.39330 6287 ft 251 kts 69°
2026-05-04 02:03 56.17296 37.42321 6081 ft 251 kts 72°
2026-05-04 02:04 56.17742 37.45310 5876 ft 249 kts 72°
2026-05-04 02:04 56.18189 37.48309 5676 ft 248 kts 72°
2026-05-04 02:04 56.18636 37.51300 5473 ft 247 kts 72°
2026-05-04 02:04 56.19080 37.54263 5272 ft 245 kts 72°
2026-05-04 02:05 56.19306 37.57278 5055 ft 247 kts 95°
2026-05-04 02:05 56.18711 37.60157 4872 ft 249 kts 123°
2026-05-04 02:05 56.17627 37.62569 4783 ft 250 kts 132°
2026-05-04 02:05 56.16423 37.64837 4676 ft 250 kts 134°
2026-05-04 02:06 56.15219 37.67044 4559 ft 250 kts 135°
2026-05-04 02:06 56.14004 37.69269 4438 ft 249 kts 134°
2026-05-04 02:06 56.12804 37.71467 4318 ft 246 kts 134°
2026-05-04 02:06 56.11621 37.73631 4200 ft 239 kts 134°
2026-05-04 02:07 56.10442 37.75699 4084 ft 236 kts 144°
2026-05-04 02:07 56.08982 37.76788 3962 ft 224 kts 176°
2026-05-04 02:07 56.07506 37.76603 3865 ft 210 kts 194°
2026-05-04 02:07 56.06113 37.75973 3774 ft 200 kts 199°
2026-05-04 02:08 56.04806 37.75255 3691 ft 197 kts 201°
2026-05-04 02:08 56.03493 37.74506 3601 ft 197 kts 201°
2026-05-04 02:08 56.02320 37.73412 3491 ft 190 kts 230°
2026-05-04 02:08 56.01651 37.71434 3374 ft 186 kts 252°
2026-05-04 02:09 56.01215 37.69259 3222 ft 183 kts 259°
2026-05-04 02:09 56.00914 37.67059 3089 ft 182 kts 260°
2026-05-04 02:09 56.00603 37.64857 2938 ft 182 kts 259°
2026-05-04 02:09 56.00287 37.62710 2706 ft 175 kts 258°
2026-05-04 02:10 55.99985 37.60666 2494 ft 164 kts 258°
2026-05-04 02:10 55.99701 37.58731 2291 ft 160 kts 258°
2026-05-04 02:10 55.99419 37.56827 2089 ft 159 kts 258°
2026-05-04 02:10 55.99138 37.54927 1876 ft 155 kts 258°
2026-05-04 02:11 55.98874 37.53149 1678 ft 143 kts 257°
2026-05-04 02:11 55.98617 37.51411 1486 ft 144 kts 257°
2026-05-04 02:11 55.98363 37.49706 1296 ft 144 kts 256°
2026-05-04 02:11 55.98106 37.47974 1098 ft 143 kts 256°
2026-05-04 02:12 55.97853 37.46267 908 ft 144 kts 255°
2026-05-04 02:12 55.97600 37.44545 714 ft 144 kts 255°
2026-05-04 02:12 55.97351 37.42862 645 ft 127 kts 255°
2026-05-04 02:12 55.97158 37.41587 644 ft 86 kts 255°
2026-05-04 02:13 55.97044 37.40821 644 ft 42 kts 255°
2026-05-04 02:13 55.96991 37.40464 644 ft 26 kts 255°
2026-05-04 02:13 55.96957 37.40244 644 ft 13 kts 255°
2026-05-04 02:13 55.96942 37.40120 644 ft 7 kts 275°
2026-05-04 02:14 55.96970 37.40055 644 ft 7 kts 333°
2026-05-04 02:14 55.97012 37.40035 644 ft 6 kts 347°
2026-05-04 02:14 55.97057 37.40014 644 ft 6 kts 345°
2026-05-04 02:14 55.97104 37.39991 644 ft 7 kts 345°
2026-05-04 02:15 55.97154 37.39968 644 ft 7 kts 346°
2026-05-04 02:15 55.97206 37.39943 644 ft 7 kts 346°
2026-05-04 02:15 55.97259 37.39918 644 ft 8 kts 346°
2026-05-04 02:15 55.97316 37.39896 644 ft 7 kts
2026-05-04 02:16 55.97351 37.39958 644 ft 8 kts 73°
2026-05-04 02:16 55.97365 37.40056 644 ft 8 kts 76°
2026-05-04 02:16 55.97380 37.40157 644 ft 8 kts 75°
2026-05-04 02:16 55.97396 37.40260 644 ft 8 kts 75°
2026-05-04 02:17 55.97412 37.40366 644 ft 8 kts 75°
2026-05-04 02:17 55.97428 37.40472 644 ft 9 kts 75°
2026-05-04 02:17 55.97444 37.40581 644 ft 9 kts 75°
2026-05-04 02:17 55.97461 37.40691 644 ft 9 kts 75°
2026-05-04 02:18 55.97477 37.40801 644 ft 9 kts 75°
2026-05-04 02:18 55.97494 37.40915 644 ft 9 kts 75°
2026-05-04 02:18 55.97511 37.41028 644 ft 9 kts 76°
2026-05-04 02:18 55.97528 37.41143 644 ft 9 kts 76°
2026-05-04 02:19 55.97545 37.41257 644 ft 9 kts 76°
2026-05-04 02:19 55.97562 37.41374 644 ft 9 kts 76°
2026-05-04 02:19 55.97580 37.41491 644 ft 9 kts 76°
2026-05-04 02:19 55.97601 37.41586 644 ft 7 kts 42°
2026-05-04 02:20 55.97652 37.41595 644 ft 7 kts 349°
2026-05-04 02:20 55.97706 37.41569 644 ft 8 kts 345°
2026-05-04 02:20 55.97762 37.41542 644 ft 8 kts 345°
2026-05-04 02:20 55.97820 37.41514 644 ft 8 kts 345°
2026-05-04 02:21 55.97879 37.41486 644 ft 8 kts 346°
2026-05-04 02:21 55.97939 37.41458 644 ft 9 kts 346°
2026-05-04 02:21 55.97994 37.41431 644 ft 7 kts 342°
2026-05-04 02:21 55.98024 37.41383 644 ft 5 kts 284°
2026-05-04 02:22 55.98020 37.41313 644 ft 5 kts 256°
2026-05-04 02:22 55.98011 37.41250 644 ft 5 kts 255°
2026-05-04 02:22 55.98006 37.41214 644 ft 1 kts 255°
2026-05-04 02:22 55.98004 37.41209 644 ft 0 kts 255°